Probability
0 0 0 0 0 0 0 0 0 0 0 0 0 0 0 0 0 0 0 0 0 0 0 0 0 0 0 0 0 0 0 0 0 0 0 0 0 0 0 0 0 0 0
0 0 0 0 0 0 0 0 0 0 0 0 0 0 0 0 0 0 0 0 0 0 0 0 0 0 0 0 0 0 0 0 0 0 0 0 0 0 0 0 0 0 0
0 0 0 0 0 0 0 0 0 0 0 0 0 0 0 0 0 0 0 0 0 0 0 0 0 0 0 0 0 0 0 0 0 0 0 0 0 0 0 0 0 0 0
0 0 0 0 0 0 0 0 0 0 0 0 0 0 0 0 0 0 0 0 0 0 0 0 0 0 0 0 0 0 0 0 0 0 0 0 0 0 0 0 0 0 0
0 0 0 0 0 0 0 0 0 0 0 0 0 0 0 0 0 0 0 0 0 0 0 0 0 0 0 0 0 0 0 0 0 0 0 0 0 0 0 0 0 0 0
0 0 0 0 0 0 0 0 0 0 0 0 0 0 0 0 0 0 0 0 0 0 0 0 0 0 0 0 0 0 0 0 0 0 0 0 0 0 0 0 0 0 0
0 0 0 0 0 0 0 0 0 0 0 0 0 0 0 0 0 0 0 0 0 0 0 0 0 0 0 0 0 0 0 0 0 0 0 0 0 0 0 0 0 0 0
0 0 0 0 0 0 0 0 0 0 0 0 0 0 0 0 0 0 0 0 0 0 0 0 0 0 0 0 0 0 0 0 0 0 0 0 0 0 0 0 0 0 0
0 0 0 0 0 0 0 0 0 0 0 0 0 0 0 0 0 0 0 0 0 0 0 0 0 0 0 0 0 0 0 0 0 0 0 0 0 0 0 0 0 0 0
0 0 0 0 0 0 0 0 0 0 0 0 0 0 0 0 0 0 0 0 0 0 0 0 0 0 0 0 0 0 0 0 0 0 0 0 0 0 0 0 0 0 0
0 0 0 0 0 0 0 0 0 0 0 0 0 0 0 0 0 0 0 0 0 0 0 0 0 0 0 0 0 0 0 0 0 0 0 0 0 0 0 0 0 0 0
0 0 0 0 0 0 0 0 0 0 0 0 0 0 0 0 0 0 0 0 0 0 0 0 0 0 0 0 0 0 0 0 0 0 0 0 0 0 0 0 0 0 0
0 0 0 0 0 0 0 0 0 0 0 0 0 0 0 0 0 0 0 0 0 0 0 0 0 0 0 0 0 0 0 0 0 0 0 0 0 0 0 0 0 0 0
0 0 0 0 0 0 0 0 0 0 0 0 0 0 0 0 0 0 0 0 0 0 0 0 0 0 0 0 0 0 0 0 0 0 0 0 0 0 0 0 0 0 0
0 0 0 0 0 0 0 0 0 0 0 0 0 0 0 0 0 0 0 0 0 0 0 0 0 0 0 0 0 0 0 0 0 0 0 0 0 0 0 0 0 0 0
0 0 0 0 0 0 0 0 0 0 0 0 0 0 0 0 0 0 0 0 0 0 0 0 0 0 0 0 0 0 0 0 0 0 0 0 0 0 0 0 0 0 0
0 0 0 0 0 0 0 0 0 0 0 0 0 0 0 0 0 0 0 0 0 0 0 0 0 0 0 0 0 0 0 0 0 0 0 0 0 0 0 0 0 0 0
0 0 0 0 0 0 0 0 0 0 0 0 0 0 0 0 0 0 0 0 0 0 0 0 0 0 0 0 0 0 0 0 0 0 0 0 0 0 0 0 0 0 0
0 0 0 0 0 0 0 0 0 0 0 0 0 0 0 0 0 0 0 0 0 0 0 0 0 0 0 0 0 0 0 0 0 0 0 0 0 0 0 0 0 0 0
0 0 0 0 0 0 0 0 0 0 0 0 0 0 0 0 0 0 0 0 0 0 0 0 0 0 0 0 0 0 0 0 0 0 0 0 0 0 0 0 0 0 0
0 0 0 0 0 0 0 0 0 0 0 0 0 0 0 0 0 0 0 0 0 0 0 0 0 0 0 0 0 0 0 0 0 0 0 0 0 0 0 0 0 0 0
0 0 0 0 0 0 0 0 0 0 0 0 0 0 0 0 0 0 0 0 0 0 0 0 0 0 0 0 0 0 0 0 0 0 0 0 0 0 0 0 0 0 0
0 0 0 0 0 0 0 0 0 0 0 0 0 0 0 0 0 0 0 0 0 0 0 0 0 0 0 0 0 0 0 0 0 0 0 0 0 0 0 0 0 0 0
0 0 0 0 0 0 0 0 0 0 0 0 0 0 0 0 0 0 0 0 0 0 0 0 0 0 0 0 0 0 0 0 0 0 0 0 0 0 0 0 0 0 0
0 0 0 0 0 0 0 0 0 0 0 0 0 0 0 0 0 0 0 0 0 0 0 0 0 0 0 0 0 0 0 0 0 0 0 0 0 0 0 0 0 0 0
0 0 0 0 0 0 0 0 0 0 0 0 0 0 0 0 0 0 0 0 0 0 0 0 0 0 0 0 0 0 0 0 0 0 0 0 0 0 0 0 0 0 0
Wind_Speed
5 5 9 11 12 11 10 10 9 9 10 11 11 11 11 11 10 10 11 11 12 12 12 11 11 11 11 11 11 12 12 13 13 13 13 13 13 13 13 13 10 7 11
6 7 10 11 12 12 11 10 9 9 10 10 10 10 10 10 10 11 11 11 11 11 10 10 10 11 11 11 11 11 11 11 11 11 11 11 12 13 14 14 12 9 13
5 8 9 11 11 11 11 10 9 9 9 9 9 10 10 10 10 10 10 10 10 9 9 9 9 10 11 11 10 10 9 9 8 8 9 5 6 11 12 13 13 14 14
6 8 9 11 11 12 11 10 10 9 9 9 9 9 8 8 9 9 9 8 8 7 7 8 8 9 9 10 10 9 8 7 7 7 4 4 4 9 11 12 12 13 14
5 7 9 12 12 12 12 11 10 10 9 9 9 8 8 8 8 8 8 7 7 6 6 6 7 8 8 8 8 7 7 7 8 7 4 4 3 7 10 10 11 12 12
4 5 7 12 12 12 12 12 11 10 10 10 9 9 8 8 8 8 7 6 5 4 4 5 6 7 7 7 7 6 6 8 8 5 5 4 3 6 9 9 9 10 10
4 4 5 10 11 11 12 12 11 10 10 9 9 9 8 8 9 8 7 5 4 3 3 4 5 6 6 6 6 5 5 7 5 5 5 4 3 6 7 7 7 8 8
4 4 4 8 9 10 11 10 10 9 9 9 8 8 8 9 10 9 7 5 3 2 2 3 4 5 5 5 6 5 5 6 6 5 4 4 4 5 5 6 6 6 7
1 1 2 4 6 8 10 10 9 9 8 8 7 7 7 8 9 9 7 6 4 1 1 3 4 4 5 5 6 5 6 7 5 3 3 3 3 4 4 4 4 4 5
3 2 2 3 4 5 6 9 10 9 8 8 7 6 6 8 9 9 7 6 4 2 1 3 3 3 5 6 6 5 6 6 4 3 2 3 4 2 3 3 3 3 3
7 5 4 4 5 5 5 6 8 9 9 8 6 6 5 3 4 5 7 6 5 3 2 3 2 4 7 7 8 6 5 2 2 2 2 4 3 2 1 2 2 2 1
10 9 6 5 5 6 5 4 4 4 4 5 4 4 3 3 3 4 7 6 5 4 2 2 3 7 6 4 6 6 3 3 2 2 2 5 4 3 2 2 2 2 1
8 8 8 7 6 6 5 4 3 2 2 3 4 4 3 3 2 2 2 3 3 4 3 3 5 3 3 2 3 3 3 3 2 2 3 6 5 5 4 3 2 2 2
9 10 9 8 6 5 5 4 3 2 2 2 3 3 3 3 3 3 2 3 3 3 4 3 2 2 2 2 2 3 4 3 3 2 4 8 7 7 6 5 4 4 3
10 12 11 9 6 3 3 3 2 2 2 2 2 3 4 3 4 3 3 3 3 3 4 4 3 3 1 1 2 2 3 4 4 4 4 9 10 9 8 8 7 6 5
12 12 11 10 7 2 1 1 1 1 1 2 2 3 4 3 4 4 4 3 3 3 4 4 5 4 2 1 1 2 2 3 3 4 4 6 10 11 9 9 9 8 7
11 10 11 10 9 6 4 4 3 3 2 2 2 1 0 1 3 3 3 3 3 3 3 2 3 2 2 2 2 2 2 2 3 4 4 3 5 9 11 10 9 9 8
9 10 11 10 11 11 9 8 7 7 8 7 6 6 7 5 2 2 1 1 1 2 2 2 2 2 2 2 2 1 1 2 3 4 3 3 3 4 7 11 10 9 9
9 9 10 11 11 11 11 11 12 11 11 10 10 10 11 11 9 6 4 4 3 2 1 1 1 0 1 2 2 2 2 3 4 4 4 4 4 4 4 8 11 10 9
9 9 10 11 11 8 8 10 11 13 12 11 12 13 15 13 13 10 7 8 6 4 3 3 3 2 2 2 2 3 3 4 4 5 5 4 3 4 4 4 5 7 10
10 12 13 13 12 8 6 5 7 8 9 10 11 15 15 14 14 12 9 9 8 6 5 4 3 3 3 2 2 3 3 3 4 4 3 3 4 4 4 4 4 4 5
10 10 12 12 12 11 6 5 5 5 7 8 9 13 15 15 14 12 12 9 8 7 8 6 4 2 2 2 2 3 4 5 4 2 2 2 3 2 4 4 4 5 4
10 10 9 10 11 11 8 6 6 5 5 7 10 10 13 14 13 13 12 10 10 9 7 7 5 4 2 2 1 2 3 4 5 3 3 2 3 3 4 4 5 5 5
7 7 8 10 11 11 9 11 13 11 9 6 5 6 9 12 13 13 12 11 10 9 9 8 6 4 3 3 2 0 1 1 3 6 4 3 3 4 5 5 5 6 6
5 6 7 9 12 10 11 11 12 11 7 5 5 9 9 9 12 12 11 11 10 8 9 9 8 7 4 3 3 2 2 1 3 4 7 5 4 3 4 5 5 5 6
5 6 6 10 11 9 10 11 12 12 9 9 9 8 7 6 8 11 10 9 9 8 9 8 7 7 6 5 4 3 2 3 2 3 6 7 6 5 5 4 5 6 6
Wind_Direction
210 193 189 171 164 157 149 140 131 122 116 111 108 105 105 106 103 98 92 84 77 70 63 59 56 55 55 56 57 56 57 58 56 55 57 61 67 66 60 53 50 52 66
168 171 187 173 168 162 157 149 141 134 128 121 116 111 109 108 105 98 90 82 75 67 61 56 52 49 46 46 47 49 52 53 55 57 57 55 63 65 60 53 51 53 57
152 164 177 174 170 165 160 156 153 148 141 134 127 122 118 113 106 99 92 84 76 67 61 56 51 47 42 39 38 38 40 43 51 61 58 42 56 68 63 57 52 50 51
159 164 172 176 172 168 165 164 163 160 153 146 139 133 127 121 115 107 98 89 79 69 61 54 49 46 42 38 34 31 32 42 61 71 56 39 39 73 70 64 58 53 50
160 169 173 175 177 173 171 171 171 169 164 159 154 149 144 137 128 118 107 97 85 72 61 52 44 41 38 36 32 31 40 60 70 71 62 45 32 75 76 71 66 59 53
166 172 176 179 182 180 178 179 179 178 175 172 168 164 160 152 139 130 121 110 96 79 63 54 44 36 31 30 30 34 56 77 71 66 58 45 35 80 83 80 76 68 60
165 174 182 187 189 187 185 186 187 187 186 184 181 178 174 164 151 143 136 125 110 89 69 63 53 39 27 25 28 34 63 84 78 69 57 39 42 78 83 81 82 75 69
168 176 186 195 197 194 192 192 192 195 195 194 193 190 186 175 164 157 152 143 130 103 71 70 61 43 29 27 30 34 64 79 75 66 54 32 40 72 77 71 71 77 73
133 174 206 200 203 202 197 196 196 199 201 202 203 201 195 181 171 164 157 154 150 140 92 84 69 42 29 29 32 43 75 82 75 58 45 14 16 64 65 53 51 64 72
23 348 281 235 212 207 205 204 203 203 205 208 209 210 205 190 178 166 156 157 161 160 135 108 84 44 37 30 28 47 70 70 68 57 30 351 8 40 52 36 25 35 56
4 354 331 281 238 219 210 207 208 209 210 209 211 218 212 190 172 164 164 164 160 148 143 133 109 69 56 30 22 34 43 44 59 44 6 346 1 353 11 7 353 355 15
346 341 338 306 265 238 221 205 204 204 211 206 194 197 182 165 168 167 172 168 153 132 128 145 109 80 63 31 8 14 8 9 21 1 336 347 350 328 309 314 315 309 310
332 335 336 323 287 251 230 209 194 187 198 207 199 185 167 158 152 150 146 153 138 122 97 78 80 80 70 47 14 357 348 351 340 329 325 331 329 315 294 276 276 278 278
341 340 333 325 305 264 240 222 198 182 186 194 196 183 162 158 159 159 163 161 150 139 134 121 121 115 82 49 24 355 344 338 326 322 313 320 315 300 287 271 255 254 253
350 344 337 329 317 280 235 223 210 196 192 196 189 186 178 172 175 172 175 172 168 157 157 152 153 157 146 11 3 357 338 333 326 322 319 319 315 301 283 273 259 249 239
350 344 340 345 344 340 142 166 169 174 200 216 215 208 194 183 178 177 178 179 183 182 176 166 166 167 173 184 297 319 319 322 322 319 315 317 317 313 298 279 267 254 241
346 345 354 0 9 33 61 76 74 69 62 29 6 358 284 182 177 174 176 186 192 174 159 142 145 145 164 186 249 278 300 311 309 308 309 309 313 314 313 298 284 268 252
352 358 6 17 26 42 53 60 60 54 51 39 31 27 26 25 51 113 149 192 154 139 150 153 146 177 203 209 237 263 288 297 293 291 291 293 299 306 312 310 309 295 270
357 3 16 23 32 45 58 64 62 57 52 44 38 33 30 33 36 46 41 33 55 70 74 92 72 80 266 263 265 270 268 267 271 277 273 273 276 287 299 309 317 316 299
3 16 26 32 30 36 54 63 63 57 51 48 43 36 36 35 36 41 42 36 36 39 34 31 33 29 14 348 311 284 269 262 260 255 258 263 265 276 292 304 316 318 313
21 28 30 35 28 34 44 49 55 54 47 48 45 40 40 38 39 42 40 38 34 37 33 31 35 26 20 11 337 315 300 267 265 273 280 285 291 302 310 306 311 313 314
24 28 36 37 36 39 47 58 71 76 58 54 48 44 39 39 38 40 39 38 33 36 36 33 35 25 21 22 2 335 328 330 341 325 300 274 292 313 301 295 294 291 297
29 25 38 41 44 43 48 69 74 64 57 44 38 40 36 38 39 40 38 38 34 35 31 23 23 27 4 3 27 348 333 314 319 314 329 310 287 276 269 264 262 262 265
23 22 38 48 50 44 49 68 75 74 69 47 41 44 42 41 39 37 37 37 36 34 28 20 19 14 9 354 345 347 236 270 298 309 308 302 283 271 274 276 270 264 256
29 36 45 58 56 50 57 67 78 78 77 66 53 49 43 39 39 36 36 36 34 32 26 21 19 20 16 3 345 326 307 260 232 262 292 303 307 277 266 259 258 259 255
46 49 55 69 63 56 65 69 77 81 78 69 55 47 39 33 32 30 32 33 31 28 25 18 17 21 17 7 353 340 320 301 295 273 284 297 290 276 269 251 247 249 247